Location: Burgwalden
(48.2830°N, 10.7576°E)
Time: 02:19:10
(UTC+00:00)

ATLAS 3B R/B - Pass Details

Date: 26 September 2023
Orbit: 954 x 1241 km, 63.8° (Epoch: 01 December)

Event Time Altitude Azimuth Distance (km) Brightness Sun altitude
Rises 03:46:01 0° 318° (NW) 4,127 5.5 -14.4°
Reaches altitude 10° 03:48:47 10° 315° (NW) 3,183 4.9 -14.0°
Maximum altitude 03:56:22 62° 238° (WSW) 1,382 3.0 -12.7°
Drops below altitude 10° 04:03:58 10° 160° (SSE) 3,187 5.3 -11.5°
Sets 04:06:44 0° 157° (SSE) 4,133 5.9 -11.1°
